SL-16 DEB, 22576

Orbit data source: Space-Track

SL-16 DEB, 22576 is space debris in LEO originally from a launch on Fri, 26 Mar 1993 UTC launched from the Tyuratam Missile And Space Complex (TTMTR). Debris objects in space refer to the collection of defunct objects orbiting the Earth. Examples of debris include non-operational satellites, rocket bodies, and fragments generated from explosions, collisions, or faulty payload assembly.

Loading next visibility...
Identifier
22576, 1993-016D
Orbit
LEO
Country
Flag of CISCIS
Related business
Manufacturer
Yuzhnoe
Mission
Spacecraft
Bus & Motor
SEP MOTOR COVER, Unknown motor
Mass
~0 kg wet, ~1 kg dry
Launch date (UTC)
1993-03-26 (33 years ago)
Launch vehicle
Unknown
Launch site
Tyuratam Missile And Space Complex (TTMTR)
Object type
Payload
Rocket body
Debris
Shape & HBR
CONE, 0.2 m
Radar Cross Section
Medium (>0.1 m² and <1 m²)

Expand to show TLE details & history
Last TLE update: 14 hours ago

TLE from 14 hours ago
0 SL-16 DEB
1 22576U 93016D   26255.33447644  .00000044  00000-0  79791-4 0  9991
2 22576  70.9949 101.9109 0198037  75.3546  97.8673 13.73604541676611
Epoch: 2026-09-12T08:01Z
TLE epoch observation values (Epoch: 2026-09-12T08:01:38.764Z)
Latitude
4.21152°
Longitude
168.7086°
Altitude
1,011.355 km
Speed
7.335 km/s
True Right ascension
18h 41m 51s
True Declination
4° 11' 14"
Sunlit
Object was in daylight at epoch
Visualization orbit readout
Latitude
Unknown
Longitude
Unknown
Altitude
Unknown
Speed
Unknown
Apparent Right ascension
Unknown
Apparent Declination
Unknown
Sunlit
N/A
Visualization observer readout
Local Sidereal Time
14:49:55
Azimuth
Unknown
Elevation
Unknown
Doppler factor
Unknown
Orbital elements
Apogee altitude
1,130.433 km
Perigee altitude
838.814 km
Semi-major axis
7,362.761 km
Eccentricity
0.0198
Inclination
70.9949°
RAAN
101.9109°
Arg. of periapsis
75.3546°
True anomaly
100.10711°
Mean anomaly
97.8673°
Eccentric anomaly
98.98804°
Mean motion
3.43544 °/min
Orbital period
104.79 mins
BSTAR
0.000079791
Loading maneuver chart data...
Computing Atmospheric mass density...
Loading historical data...
Loading historical data...
Loading historical data...
Loading historical data...
Loading historical data...
Loading historical data...
Loading historical data...

Documentation

Showing up to 5 results
|